Abhaipura, India

8:47 AM IST on May 24, 2018 (GMT +0530)
Abhaipura

Weather History for 42348 - November, 2012

Change the Weather History Date:

Wednesday, November 28, 2012

  Actual Average Record
Temperature  
Mean Temperature 68 °F -  
Max Temperature 83 °F - - ()
Min Temperature 53 °F - - ()
Cooling Degree Days 3    
Growing Degree Days 18 (Base 50)    
Moisture  
Dew Point 42 °F    
Average Humidity 42    
Maximum Humidity 63    
Minimum Humidity 15    
Precipitation  
Precipitation 0.00 in - - ()
Sea Level Pressure  
Sea Level Pressure 29.97 in    
Wind  
Wind Speed 1 mph ()    
Max Wind Speed 6 mph    
Max Gust Speed -    
Visibility 1.4 miles    
Events      
T = Trace of Precipitation, MM = Missing Value Source: Averaged Metar Reports

Daily Weather History Graph

Daily Weather History Graph

Search for Another Location

Airport or City:

Astronomy

Nov. 28, 2012 Rise Set
Actual Time 6:56 AM IST 5:33 PM IST
Civil Twilight 6:31 AM IST 5:58 PM IST
Nautical Twilight 6:02 AM IST 6:26 PM IST
Astronomical Twilight 5:34 AM IST 6:54 PM IST
Moon 5:27 PM IST (11/28) 6:30 AM IST (11/28)
Length of Visible Light 11h 27m
Length of Day
10h 37m
Full, 100% of the Moon is Illuminated
Nov 28
Full
Nov 28
Full
Dec 6
Last Quarter
Dec 13
New
Dec 20
First Quarter

Hourly Weather History & Observations

Time (IST) Temp. Dew Point Humidity Pressure Visibility Wind Dir Wind Speed Gust Speed Precip Events Conditions
12:00 AM 60.8 °F 41.0 °F 48% 29.98 in 1.2 mi Calm Calm - N/A   Smoke
1:00 AM 59.0 °F 41.0 °F 51% 29.98 in 1.2 mi Calm Calm - N/A   Smoke
2:00 AM 59.0 °F 42.8 °F 55% 29.98 in 1.2 mi Calm Calm - N/A   Smoke
2:30 AM 57 °F 43 °F 49% 29.95 in 1 mi Calm Calm - -   Smoke
3:00 AM 57.2 °F 42.8 °F 59% 29.95 in 1.2 mi Calm Calm - N/A   Smoke
5:30 AM 58 °F 43 °F 46% 29.95 in 1 mi Calm Calm - -   Smoke
6:00 AM 57.2 °F 41.0 °F 55% 29.98 in 1.2 mi Calm Calm - N/A   Smoke
7:00 AM 55.4 °F 41.0 °F 58% 30.01 in 1.2 mi Calm Calm - N/A   Smoke
8:00 AM 57.2 °F 44.6 °F 63% 30.04 in 1.2 mi Calm Calm - N/A   Smoke
8:30 AM 59 °F 49 °F 59% 30.01 in 1 mi Calm Calm - -   Smoke
9:00 AM 68.0 °F 42.8 °F 40% 30.04 in 1.2 mi Calm Calm - N/A   Smoke
10:30 AM 71.6 °F 41.0 °F 33% 30.04 in 1.9 mi SSE 5.8 mph - N/A   Haze
11:30 AM 77 °F 42 °F 19% 29.97 in 1 mi South 5.8 mph - -   Haze
11:30 AM 73.4 °F 41.0 °F 31% 30.04 in 2.2 mi South 5.8 mph - N/A   Haze
12:00 PM 75.2 °F 41.0 °F 29% 30.01 in 2.2 mi SSE 3.5 mph - N/A   Haze
1:00 PM 77.0 °F 39.2 °F 26% 29.98 in 2.2 mi SSW 4.6 mph - N/A   Haze
2:00 PM 78.8 °F 39.2 °F 24% 29.95 in 2.5 mi Variable 4.6 mph - N/A   Haze
2:30 PM 82 °F 43 °F 15% 29.88 in 2 mi SSW 3.5 mph - -   Haze
3:00 PM 78.8 °F 37.4 °F 23% 29.95 in 2.5 mi WSW 3.5 mph - N/A   Haze
4:00 PM 78.8 °F 39.2 °F 24% 29.92 in 2.5 mi SSW 4.6 mph - N/A   Haze
5:00 PM 77.0 °F 37.4 °F 24% 29.92 in 2.5 mi Calm Calm - N/A   Haze
5:30 PM 73 °F 46 °F 27% 29.87 in 1 mi Calm Calm - -   Haze
7:00 PM 66.2 °F 44.6 °F 46% 29.95 in 1.0 mi Calm Calm - N/A   Smoke
7:30 PM 64.4 °F 44.6 °F 49% 29.95 in 0.9 mi Calm Calm - N/A   Smoke
8:00 PM 66.2 °F 44.6 °F 46% 29.95 in 0.7 mi Calm Calm - N/A   Smoke
8:30 PM 64.4 °F 44.6 °F 49% 29.98 in 0.7 mi Calm Calm - N/A   Smoke
10:00 PM 60.8 °F 44.6 °F 55% 29.98 in 1.2 mi Calm Calm - N/A   Smoke
11:00 PM 60.8 °F 42.8 °F 52% 29.95 in 1.2 mi Calm Calm - N/A   Smoke
11:30 PM 62 °F 46 °F 45% 29.89 in 1 mi Calm Calm - -   Smoke
11:30 PM 60.8 °F 42.8 °F 52% 29.95 in 1.2 mi Calm Calm - N/A   Smoke